THOR ABLESTAR DEB, 560

Orbit data source: Space-Track

THOR ABLESTAR DEB, 560 is space debris in LEO originally from a launch on Thu, 29 Jun 1961 UTC launched from the Air Force Eastern Test Range (AFETR). Debris objects in space refer to the collection of defunct objects orbiting the Earth. Examples of debris include non-operational satellites, rocket bodies, and fragments generated from explosions, collisions, or faulty payload assembly.

Loading next visibility...
THOR ABLESTAR DEB details
Identifier
560, 1961-015GS
Orbit
LEO
Last TLE update17 hours ago
Origin
Flag of USUSAF SSD (US)
ManufacturerUnknown
MissionSpacecraft
Bus & MotorUnknown
MassUnknown
Launch date (UTC)
1961-06-29 (64 years ago)
Launch vehicleUnknown
Launch site
Air Force Eastern Test Range (AFETR)
Object type
Payload
Rocket body
Debris
Shape & HBRUnknown
Radar Cross SectionSmall (<0.1 m²)

Expand to show TLE details & history

TLE from 17 hours ago
0 THOR ABLESTAR DEB
1 00560U 61015GS  25043.93078892  .00002292  00000-0  24272-2 0  9998
2 00560  67.1611 289.2072 0308387 304.8042  52.4357 13.57231064 87952
Epoch: 2025-02-12T22:20Z
Definitive object data (Epoch: 2025-02-12T22:20:20.162Z)
Latitude-0.00005°
Longitude170.90898°
Altitude912.819 km
Speed7.463 km/s
True Right ascension19h 16m 49s
True Declination0° 00' 00"
Sunlit
Object was in daylight at TLE epoch
Visualization TLE readout
Latitude-40.95082°
Longitude10.61233°
Altitude1,011.018 km
Speed7.37 km/s
Apparent Right ascension07h 22m 32s
Apparent Declination-41° 59' 05"
Sunlit
Object is in full shadow
Visualization observer readout
Local Sidereal Time17:58:43
Azimuth255.724° W
Elevation-74.078°
Doppler factor1
Orbital elements
Apogee altitude1,273.043 km
Perigee altitude815.255 km
Semi-major axis7,422.286 km
Eccentricity0.0308387
Inclination67.1611°
RAAN289.2072°
Arg. of periapsis304.8042°
True anomaly55.30303°
Mean anomaly52.4357°
Eccentric anomaly53.86268°
Mean motion3.39419 °/min
BSTAR0.0024272
Orbital period106.06 mins
Loading maneuver chart data...

THOR ABLESTAR DEB Visibility forecast

Observer location: undefined°, undefined

Span
Click to sort rows by Start time (UTC) header in descending order
Start Az.
Max El. time (UTC)
Max El. Az.
Max El.
End time (UTC)
End Az.
6 mins2025-02-13 16:09:32.072Z127.982° SE2025-02-13 16:12:32.072Z98.729° ESE15.188°2025-02-13 16:15:32.072Z70.867° E
12 mins2025-02-13 17:55:32.072Z209.958° SW2025-02-13 18:00:32.072Z308.685° NW44.886°2025-02-13 18:07:32.072Z27.722° NE
8 mins2025-02-13 19:47:32.072Z287.285° WNW2025-02-13 19:50:32.072Z317.773° NNW19.283°2025-02-13 19:55:32.072Z3.5° NNE
11 mins2025-02-14 01:24:32.072Z355.944° N2025-02-14 01:29:32.072Z43.671° NE25.219°2025-02-14 01:35:32.072Z98.235° ESE
13 mins2025-02-14 03:13:32.072Z327.308° NNW2025-02-14 03:19:32.072Z250.067° W44.228°2025-02-14 03:26:32.072Z161.362° S
5 mins2025-02-14 05:05:32.072Z278.44° WNW2025-02-14 05:07:32.072Z262.183° W13.701°2025-02-14 05:10:32.072Z238.248° WSW
|